Hourly Data Report for April 01, 2010

HALIFAX STANFIELD INT'L A
NOVA SCOTIA

44°52'48.060" N
63°30'00.050" W
145.40 m
8202250
71395
YHZ

Download Data

Hourly Data (April 2010)
Hourly Data Report for April 1, 2010
TIME
LST
Temp Definition
°C
Dew Point Definition
°C
Rel Hum Definition
%
Precip. Amount Definition
mm

Wind Dir Definition
10's deg

Wind Spd Definition
km/h
Visibility Definition
km
Stn Press Definition
kPa
Hmdx Definition


Wind Chill Definition


Weather Definition


00:00 7.4 7.2 99   5 9 2.4 99.40     Fog
01:00 7.5 7.2 98   3 11 1.2 99.40     Fog
02:00 7.2 6.9 98   3 9 0.6 99.37     Fog
03:00 7.3 7.1 99   4 11 0.8 99.35     Fog
04:00 7.2 7.1 99   2 13 0.8 99.38     Fog
05:00 6.9 6.8 99   36 13 0.4 99.43     Fog
06:00 6.9 6.7 99   1 17 1.0 99.53     Fog
07:00 7.1 6.8 98   1 19 0.8 99.59     Drizzle, Fog
08:00 6.6 6.3 98   1 26 1.0 99.64     Fog
09:00 6.8 6.5 98   1 26 2.4 99.67     Fog
10:00 6.7 6.4 98   2 20 2.4 99.72     Fog
11:00 8.4 8.0 97   2 17 24.1 99.72     Cloudy
12:00 9.7 8.8 94   1 19 24.1 99.71     Cloudy
13:00 11.5 9.7 89   2 15 24.1 99.72     Cloudy
14:00 13.5 10.5 82   36 20 24.1 99.73     Cloudy
15:00 11.1 8.7 85   34 28 24.1 99.77     Cloudy
16:00 9.3 8.0 92   36 22 24.1 99.83     Drizzle
17:00 9.2 8.2 93   3 24 24.1 99.86     Mostly Cloudy
18:00 8.6 7.7 94   1 19 24.1 99.92     Cloudy
19:00 8.2 6.9 92   1 19 24.1 99.96     Cloudy
20:00 7.8 6.9 94   36 15 19.3 100.03     Cloudy
21:00 7.0 6.3 95   36 19 12.9 100.09     Cloudy
22:00 6.5 6.0 97   36 17 4.8 100.11     Fog
23:00 6.3 6.0 98   36 13 19.3 100.08     Drizzle

Notes on Data Quality.

Legend

  • E = Estimated
  • M = Missing
  • NA = Not Available*
  • [empty] = Indicates an unobserved value
Date modified: